Change the Weather History Date:

Monday, January 13, 2014

  Actual Average Record
Temperature  
Mean Temperature 64 °F 55 °F  
Max Temperature 73 °F 62 °F 74 °F (1972)
Min Temperature 55 °F 48 °F 22 °F (1912)
Degree Days  
Heating Degree Days 1 10  
Month to date heating degree days 152 130  
Since 1 July heating degree days 698 490  
Cooling Degree Days 0 0  
Month to date cooling degree days 0 0  
Year to date cooling degree days 0 0  
Growing Degree Days 14 (Base 50)    
Moisture  
Dew Point 57 °F    
Average Humidity 65    
Maximum Humidity 100    
Minimum Humidity 30    
Precipitation  
Precipitation 0.65 in 0.13 in 2.18 in (1944)
Month to date precipitation 0.90 1.72  
Year to date precipitation 0.90 1.72  
Snow  
Snow 0.00 in - T in (1982)
Month to date snowfall 0.0  
Since 1 July snowfall 0.0  
Snow Depth 0.00 in    
Sea Level Pressure  
Sea Level Pressure 29.94 in    
Wind  
Wind Speed 11 mph (WSW)    
Max Wind Speed 29 mph    
Max Gust Speed 37 mph    
Visibility 6 miles    
Events Rain , Thunderstorm    
T = Trace of Precipitation, MM = Missing Value Source: NWS Daily Summary

Daily Weather History Graph

Daily Weather History Graph

Search for Another Location

Airport or City:

Trip Planner

Search our weather history database for the weather conditions in past years. The results will help you decide how hot, cold, wet, or windy it might be!

Date:

Astronomy

Jan. 13, 2014 Rise Set
Actual Time 7:14 AM CST 5:41 PM CST
Civil Twilight 6:49 AM CST 6:07 PM CST
Nautical Twilight 6:19 AM CST 6:36 PM CST
Astronomical Twilight 5:51 AM CST 7:05 PM CST
Moon 3:56 PM CST (1/13) 5:05 AM CST (1/13)
Length of Visible Light 11h 18m
Length of Day
10h 27m
Waxing Gibbous, 95% of the Moon is Illuminated
Jan 13
Waxing Gibbous
Jan 15
Full
Jan 23
Last Quarter
Jan 30
New
Feb 6
First Quarter

Hourly Weather History & Observations

Time (CST) Temp. Dew Point Humidity Pressure Visibility Wind Dir Wind Speed Gust Speed Precip Events Conditions
12:52 AM 61.0 °F 61.0 °F 100% 29.91 in 7.0 mi SSE 9.2 mph - 0.00 in   Partly Cloudy
1:35 AM 60.8 °F 60.8 °F 100% 29.93 in 7.0 mi SSW 6.9 mph - 0.00 in   Mostly Cloudy
1:52 AM 62.1 °F 62.1 °F 100% 29.93 in 7.0 mi SSW 4.6 mph - 0.00 in   Overcast
2:15 AM 62.6 °F 62.6 °F 100% 29.91 in 7.0 mi SSW 3.5 mph - N/A   Overcast
2:52 AM 62.1 °F 62.1 °F 100% 29.89 in 3.0 mi South 3.5 mph - 0.02 in Rain Rain
3:02 AM 62.6 °F 62.6 °F 100% 29.89 in 4.0 mi Calm Calm - 0.00 in Rain , Thunderstorm Light Rain
3:20 AM 62.6 °F 62.6 °F 100% 29.92 in 1.5 mi SW 24.2 mph 36.8 mph 0.15 in Rain , Thunderstorm Light Thunderstorms and Rain
3:28 AM 62.6 °F 60.8 °F 94% 29.91 in 0.8 mi South 18.4 mph 36.8 mph 0.35 in Rain , Thunderstorm Heavy Thunderstorms and Rain
3:31 AM 62.6 °F 62.6 °F 100% 29.89 in 1.5 mi South 13.8 mph 28.8 mph 0.36 in Rain , Thunderstorm Heavy Thunderstorms and Rain
3:37 AM 62.6 °F 60.8 °F 94% 29.90 in 3.0 mi SSW 15.0 mph - 0.37 in Rain , Thunderstorm Thunderstorms and Rain
3:52 AM 63.0 °F 62.1 °F 97% 29.89 in 3.0 mi SSW 11.5 mph - 0.43 in Rain Heavy Rain
4:13 AM 62.6 °F 62.6 °F 100% 29.89 in 2.5 mi SSW 11.5 mph 19.6 mph 0.19 in Rain , Thunderstorm Heavy Thunderstorms and Rain
4:22 AM 62.6 °F 62.6 °F 100% 29.87 in 4.0 mi South 15.0 mph - 0.20 in Rain , Thunderstorm Light Thunderstorms and Rain
4:34 AM 62.6 °F 62.6 °F 100% 29.86 in 6.0 mi SSW 11.5 mph - 0.20 in   Overcast
4:49 AM 62.6 °F 62.6 °F 100% 29.88 in 6.0 mi SSW 10.4 mph - 0.20 in   Mostly Cloudy
4:52 AM 62.1 °F 62.1 °F 100% 29.88 in 5.0 mi SSW 13.8 mph - 0.20 in   Mostly Cloudy
5:09 AM 62.6 °F 62.6 °F 100% 29.89 in 6.0 mi SSW 11.5 mph - N/A   Overcast
5:52 AM 64.0 °F 64.0 °F 100% 29.88 in 5.0 mi SW 6.9 mph - N/A   Overcast
6:16 AM 64.4 °F 64.4 °F 100% 29.88 in 5.0 mi SW 6.9 mph - N/A   Overcast
6:43 AM 64.4 °F 64.4 °F 100% 29.90 in 3.0 mi WSW 5.8 mph - N/A   Overcast
6:52 AM 64.0 °F 64.0 °F 100% 29.90 in 3.0 mi WSW 6.9 mph - N/A   Overcast
6:59 AM 62.6 °F 62.6 °F 100% 29.91 in 2.5 mi WSW 5.8 mph - N/A   Overcast
7:13 AM 62.6 °F 62.6 °F 100% 29.90 in 3.0 mi SW 6.9 mph - N/A   Overcast
7:23 AM 62.6 °F 62.6 °F 100% 29.91 in 3.0 mi WSW 6.9 mph - N/A   Overcast
7:52 AM 64.9 °F 64.9 °F 100% 29.92 in 4.0 mi SW 9.2 mph - N/A   Overcast
8:52 AM 66.0 °F 66.0 °F 100% 29.92 in 4.0 mi SSW 8.1 mph - N/A   Scattered Clouds
9:16 AM 64.4 °F 64.4 °F 100% 29.92 in 3.0 mi SSW 5.8 mph - N/A   Mostly Cloudy
9:52 AM 68.0 °F 66.9 °F 96% 29.93 in 7.0 mi WSW 9.2 mph 16.1 mph N/A   Mostly Cloudy
10:24 AM 69.8 °F 66.2 °F 88% 29.93 in 8.0 mi WSW 6.9 mph - N/A   Scattered Clouds
10:37 AM 69.8 °F 66.2 °F 88% 29.94 in 10.0 mi West 9.2 mph - N/A   Mostly Cloudy
10:52 AM 71.1 °F 66.0 °F 84% 29.93 in 10.0 mi West 6.9 mph 17.3 mph N/A   Mostly Cloudy
11:03 AM 69.8 °F 64.4 °F 83% 29.93 in 10.0 mi West 12.7 mph - N/A   Scattered Clouds
11:52 AM 71.1 °F 63.0 °F 75% 29.93 in 10.0 mi West 10.4 mph - N/A   Partly Cloudy
12:52 PM 72.0 °F 59.0 °F 64% 29.93 in 10.0 mi West 15.0 mph - N/A   Clear
1:52 PM 71.1 °F 48.9 °F 45% 29.93 in 10.0 mi NW 18.4 mph 24.2 mph N/A   Clear
2:52 PM 71.1 °F 42.1 °F 35% 29.95 in 10.0 mi NNW 25.3 mph 29.9 mph N/A   Clear
3:52 PM 70.0 °F 41.0 °F 35% 29.97 in 10.0 mi NNW 18.4 mph 28.8 mph N/A   Clear
4:52 PM 68.0 °F 39.0 °F 35% 30.00 in 10.0 mi NNW 16.1 mph 25.3 mph N/A   Clear
5:52 PM 64.9 °F 36.0 °F 34% 30.02 in 10.0 mi NW 19.6 mph 25.3 mph N/A   Clear
6:52 PM 63.0 °F 30.0 °F 29% 30.05 in 10.0 mi NW 17.3 mph - N/A   Clear
7:52 PM 60.1 °F 34.0 °F 38% 30.10 in 10.0 mi NW 9.2 mph - N/A   Clear
8:52 PM 60.1 °F 35.1 °F 39% 30.12 in 10.0 mi NW 10.4 mph - N/A   Clear
9:52 PM 57.0 °F 35.1 °F 44% 30.14 in 10.0 mi NW 8.1 mph - N/A   Clear
10:52 PM 57.0 °F 33.1 °F 40% 30.15 in 10.0 mi NW 10.4 mph - N/A   Clear
11:52 PM 55.9 °F 35.1 °F 45% 30.14 in 10.0 mi NW 4.6 mph - N/A   Clear